Location: Ernsee
(50.8780°N, 12.0389°E)
Time: 23:45:18
(UTC+00:00)

NOSS 2-2 (C) - Pass Details

Date: 20 January 2020
Orbit: 482 x 1727 km, 63.3° (Epoch: 24 February)

Event Time Altitude Azimuth Distance (km) Brightness Sun altitude
Exits shadow 05:49:09 12° 253° (WSW) 1,580 5.2 -11.5°
Maximum altitude 05:52:22 44° 325° (NW) 775 3.7 -11.1°
Drops below altitude 10° 05:56:39 10° 38° (NE) 2,050 6.5 -10.4°
Sets 05:59:21 0° 45° (NE) 3,140 7.5 -10.0°
